Location: Albany
(35.0000°S, 118.0000°E)
Time: 23:37:47
(UTC-04:00)

SJ-6B - Visible Passes

Search period start: 26 September 2016 00:00
Search period end: 06 October 2016 00:00
Orbit: 513 x 584 km, 97.8° (Epoch: 26 September)

Date Brightness Start Highest point End Pass type
(mag) Time Alt. Az. Time Alt. Az. Time Alt. Az.
26 Sep 4.2 06:38:57 10° SE 06:41:33 17° E 06:44:08 10° NE visible
26 Sep 5.0 08:13:03 10° SSW 08:16:12 25° WSW 08:19:20 10° NW visible
27 Sep 4.3 06:34:34 10° ESE 06:36:51 15° E 06:39:07 10° NE visible
27 Sep 4.8 08:08:14 10° SSW 08:11:33 28° WSW 08:14:50 10° NW visible
28 Sep 4.5 06:30:15 10° ESE 06:32:08 13° E 06:34:01 10° ENE visible
28 Sep 4.5 08:03:27 10° S 08:06:53 32° WSW 08:10:19 10° NW visible
29 Sep 4.2 07:58:40 10° S 08:02:14 37° WSW 08:05:47 10° NW visible
30 Sep 3.9 07:53:55 10° S 07:57:34 43° WSW 08:01:14 10° NW visible
01 Oct 3.6 07:49:10 10° S 07:52:54 51° WSW 07:56:39 10° NNW visible
02 Oct 3.3 07:44:27 10° S 07:48:14 59° WSW 07:52:02 10° NNW visible
03 Oct 3.0 07:39:43 10° S 07:43:34 70° WSW 07:47:25 10° NNW visible
04 Oct 2.8 07:35:02 10° S 07:38:53 81° WSW 07:42:47 10° NNW visible
05 Oct 2.7 07:30:20 10° SSE 07:34:12 87° E 07:38:07 10° NNW visible
